Station Historical Data
Daily Summary for September 9, 2017 Units:  Metric    English   Both
« Previous Day
Next Day »
Daily Weekly Monthly Yearly Custom
  High: Low: Average:
Temperature: 25.4 °C 14.3 °C 19 °C
Dew Point: 13.7 °C 12.1 °C 12.8 °C
Humidity: 89% 45% 70%
Wind Speed: 3.2km/h 0km/h 0.3km/h
Wind Gust: 11.3km/h - -
Wind- - West
Pressure: 1024.3 hPa 1021.2 hPa -
Precipitation: 0.51 mm    
Historical Graphs
 
 
Tabular Data for September 9, 2017
Time Temperature Dew Point Pressure Wind Wind Speed Wind Gust Humidity Rainfall Rate (Hourly) solar Conditions
00:00 16.4 °C 13.7 °C 1022.2 hPa Calm     84% 0 mm WeatherDisplay:10.37 W/m2 CLR
00:10 16.3 °C 13.6 °C 1022.2 hPa Calm     84% 0 mm WeatherDisplay:10.37 W/m2 CLR
00:15 16.3 °C 13.6 °C 1022.2 hPa Calm     84% 0 mm WeatherDisplay:10.37 W/m2 CLR
00:20 16.2 °C 13.5 °C 1022.2 hPa Calm     84% 0 mm WeatherDisplay:10.37 W/m2 CLR
00:25 16.2 °C 13.5 °C 1021.9 hPa Calm     84% 0 mm WeatherDisplay:10.37 W/m2 CLR
00:30 16.2 °C 13.4 °C 1022.2 hPa Calm     84% 0 mm WeatherDisplay:10.37 W/m2 CLR
00:40 16.1 °C 13.3 °C 1021.9 hPa Calm     84% 0 mm WeatherDisplay:10.37 W/m2 CLR
00:45 16 °C 13.5 °C 1021.9 hPa Calm     85% 0 mm WeatherDisplay:10.37 W/m2 CLR
00:50 16 °C 13.5 °C 1021.9 hPa Calm     85% 0 mm WeatherDisplay:10.37 W/m2 CLR
00:55 15.9 °C 13.4 °C 1021.9 hPa Calm     85% 0 mm WeatherDisplay:10.37 W/m2 CLR
01:00 15.9 °C 13.2 °C 1021.9 hPa Calm     84% 0 mm WeatherDisplay:10.37 W/m2 CLR
01:05 16 °C 13.3 °C 1021.9 hPa Calm     84% 0 mm WeatherDisplay:10.37 W/m2 CLR
01:10 16.1 °C 13.3 °C 1021.9 hPa Calm     84% 0 mm WeatherDisplay:10.37 W/m2 CLR
01:15 16.1 °C 13.6 °C 1021.9 hPa Calm     85% 0 mm WeatherDisplay:10.37 W/m2 CLR
01:20 16 °C 13.5 °C 1021.9 hPa Calm     85% 0 mm WeatherDisplay:10.37 W/m2 CLR
01:25 15.9 °C 13.4 °C 1021.9 hPa Calm     85% 0 mm WeatherDisplay:10.37 W/m2 CLR
01:30 15.9 °C 13.4 °C 1021.9 hPa Calm     85% 0 mm WeatherDisplay:10.37 W/m2 CLR
01:35 15.9 °C 13.4 °C 1021.9 hPa Calm     85% 0 mm WeatherDisplay:10.37 W/m2 CLR
01:40 15.9 °C 13.4 °C 1021.9 hPa Calm     85% 0 mm WeatherDisplay:10.37 W/m2 CLR
01:45 15.9 °C 13.4 °C 1021.6 hPa Calm     85% 0 mm WeatherDisplay:10.37 W/m2 CLR
01:50 15.8 °C 13.3 °C 1021.9 hPa Calm     85% 0 mm WeatherDisplay:10.37 W/m2 CLR
01:55 15.8 °C 13.3 °C 1021.9 hPa Calm     85% 0 mm WeatherDisplay:10.37 W/m2 CLR
02:00 15.8 °C 13.3 °C 1021.9 hPa Calm     85% 0 mm WeatherDisplay:10.37 W/m2 CLR
02:05 15.8 °C 13.1 °C 1021.9 hPa Calm     84% 0 mm WeatherDisplay:10.37 W/m2 CLR
02:10 15.8 °C 13.1 °C 1021.6 hPa Calm     84% 0 mm WeatherDisplay:10.37 W/m2 CLR
02:20 15.8 °C 13.3 °C 1021.9 hPa Calm     85% 0 mm WeatherDisplay:10.37 W/m2 CLR
02:25 15.8 °C 13.3 °C 1021.6 hPa Calm     85% 0 mm WeatherDisplay:10.37 W/m2 CLR
02:30 15.7 °C 13.2 °C 1021.9 hPa Calm     85% 0 mm WeatherDisplay:10.37 W/m2 CLR
02:35 15.7 °C 13.4 °C 1021.9 hPa Calm     86% 0 mm WeatherDisplay:10.37 W/m2 CLR
02:40 15.7 °C 13.2 °C 1021.9 hPa Calm     85% 0 mm WeatherDisplay:10.37 W/m2 CLR
02:45 15.7 °C 13.2 °C 1021.6 hPa Calm     85% 0 mm WeatherDisplay:10.37 W/m2 CLR
02:50 15.6 °C 13.1 °C 1021.6 hPa Calm     85% 0 mm WeatherDisplay:10.37 W/m2 CLR
02:55 15.6 °C 13.1 °C 1021.6 hPa Calm     85% 0 mm WeatherDisplay:10.37 W/m2 CLR
03:00 15.6 °C 13.2 °C 1021.6 hPa Calm     86% 0 mm WeatherDisplay:10.37 W/m2 CLR
03:05 15.5 °C 13.2 °C 1021.6 hPa Calm     86% 0 mm WeatherDisplay:10.37 W/m2 CLR
03:10 15.4 °C 13.1 °C 1021.6 hPa Calm     86% 0 mm WeatherDisplay:10.37 W/m2 CLR
03:15 15.4 °C 13.1 °C 1021.6 hPa Calm     86% 0 mm WeatherDisplay:10.37 W/m2 CLR
03:20 15.3 °C 13.2 °C 1021.6 hPa Calm     87% 0 mm WeatherDisplay:10.37 W/m2 CLR
03:30 15.2 °C 12.9 °C 1021.6 hPa Calm     86% 0 mm WeatherDisplay:10.37 W/m2 CLR
03:35 15.2 °C 13.1 °C 1021.6 hPa Calm     87% 0 mm WeatherDisplay:10.37 W/m2 CLR
03:40 15.2 °C 13 °C 1021.6 hPa Calm     87% 0 mm WeatherDisplay:10.37 W/m2 CLR
03:45 15.2 °C 13 °C 1021.6 hPa Calm     87% 0 mm WeatherDisplay:10.37 W/m2 CLR
03:50 15.1 °C 12.9 °C 1021.6 hPa Calm     87% 0 mm WeatherDisplay:10.37 W/m2 CLR
03:55 15.1 °C 12.9 °C 1021.6 hPa Calm     87% 0 mm WeatherDisplay:10.37 W/m2 CLR
04:00 15 °C 12.8 °C 1021.6 hPa Calm     87% 0 mm WeatherDisplay:10.37 W/m2 CLR
04:05 14.9 °C 12.8 °C 1021.6 hPa Calm     87% 0 mm WeatherDisplay:10.37 W/m2 CLR
04:10 14.9 °C 12.9 °C 1021.6 hPa Calm     88% 0 mm WeatherDisplay:10.37 W/m2 CLR
04:15 14.8 °C 12.9 °C 1021.6 hPa Calm     88% 0 mm WeatherDisplay:10.37 W/m2 CLR
04:20 14.8 °C 12.9 °C 1021.6 hPa Calm     88% 0 mm WeatherDisplay:10.37 W/m2 CLR
04:25 14.8 °C 12.8 °C 1021.6 hPa Calm     88% 0 mm WeatherDisplay:10.37 W/m2 CLR
04:30 14.8 °C 12.8 °C 1021.6 hPa Calm     88% 0 mm WeatherDisplay:10.37 W/m2 CLR
04:35 14.7 °C 12.8 °C 1021.6 hPa Calm     88% 0 mm WeatherDisplay:10.37 W/m2 CLR
04:40 14.7 °C 12.7 °C 1021.6 hPa Calm     88% 0 mm WeatherDisplay:10.37 W/m2 CLR
04:45 14.7 °C 12.7 °C 1021.9 hPa Calm     88% 0 mm WeatherDisplay:10.37 W/m2 CLR
04:50 14.6 °C 12.8 °C 1021.9 hPa Calm     89% 0 mm WeatherDisplay:10.37 W/m2 CLR
04:55 14.6 °C 12.8 °C 1021.6 hPa Calm     89% 0 mm WeatherDisplay:10.37 W/m2 CLR
05:00 14.6 °C 12.8 °C 1021.9 hPa Calm     89% 0 mm WeatherDisplay:10.37 W/m2 CLR
05:05 14.6 °C 12.8 °C 1021.9 hPa Calm     89% 0 mm WeatherDisplay:10.37 W/m2 CLR
05:10 14.6 °C 12.8 °C 1021.9 hPa Calm     89% 0 mm WeatherDisplay:10.37 W/m2 CLR
05:15 14.6 °C 12.8 °C 1021.9 hPa Calm     89% 0 mm WeatherDisplay:10.37 W/m2 CLR
05:20 14.6 °C 12.8 °C 1021.9 hPa Calm     89% 0 mm WeatherDisplay:10.37 W/m2 CLR
05:25 14.6 °C 12.8 °C 1022.2 hPa Calm     89% 0 mm WeatherDisplay:10.37 W/m2 CLR
05:30 14.6 °C 12.8 °C 1022.2 hPa Calm     89% 0 mm WeatherDisplay:10.37 W/m2 CLR
05:35 14.6 °C 12.8 °C 1022.2 hPa Calm     89% 0 mm WeatherDisplay:10.37 W/m2 CLR
05:40 14.6 °C 12.8 °C 1022.2 hPa Calm     89% 0 mm WeatherDisplay:10.37 W/m2 CLR
05:45 14.6 °C 12.8 °C 1022.2 hPa Calm     89% 0 mm WeatherDisplay:10.37 W/m2 CLR
05:50 14.6 °C 12.8 °C 1022.2 hPa Calm     89% 0 mm WeatherDisplay:10.37 W/m2 CLR
05:55 14.6 °C 12.8 °C 1022.2 hPa Calm     89% 0 mm WeatherDisplay:10.37 W/m2 CLR
06:00 14.6 °C 12.8 °C 1022.6 hPa Calm     89% 0 mm WeatherDisplay:10.37 W/m2 CLR
06:05 14.5 °C 12.7 °C 1022.6 hPa Calm     89% 0 mm WeatherDisplay:10.37 W/m2 CLR
06:10 14.5 °C 12.7 °C 1022.6 hPa Calm     89% 0 mm WeatherDisplay:10.37 W/m2 CLR
06:15 14.5 °C 12.7 °C 1022.6 hPa Calm   1.6 km/h 89% 0 mm WeatherDisplay:10.37 W/m2 CLR
06:20 14.5 °C 12.7 °C 1022.6 hPa Calm     89% 0 mm WeatherDisplay:10.37 W/m2 CLR
06:25 14.4 °C 12.7 °C 1022.6 hPa Calm     89% 0 mm WeatherDisplay:10.37 W/m2 CLR
06:30 14.5 °C 12.7 °C 1022.6 hPa Calm     89% 0 mm WeatherDisplay:10.37 W/m2 CLR
06:35 14.6 °C 12.6 °C 1022.6 hPa Calm     88% 0 mm WeatherDisplay:10.37 W/m2 CLR
06:40 14.6 °C 12.8 °C 1022.6 hPa Calm     89% 0 mm WeatherDisplay:10.37 W/m2 CLR
06:45 14.6 °C 12.7 °C 1022.9 hPa Calm     89% 0 mm WeatherDisplay:10.37 W/m2 CLR
06:50 14.5 °C 12.7 °C 1022.9 hPa Calm     89% 0 mm WeatherDisplay:10.37 W/m2 CLR
06:55 14.4 °C 12.5 °C 1022.9 hPa Calm     88% 0 mm WeatherDisplay:10.37 W/m2 CLR
07:00 14.4 °C 12.6 °C 1022.9 hPa Calm     89% 0 mm WeatherDisplay:10.37 W/m2 CLR
07:05 14.4 °C 12.6 °C 1023.2 hPa Calm     89% 0 mm WeatherDisplay:10.37 W/m2 CLR
07:10 14.4 °C 12.6 °C 1023.2 hPa Calm     89% 0 mm WeatherDisplay:10.37 W/m2 CLR
07:15 14.3 °C 12.6 °C 1023.2 hPa Calm     89% 0 mm WeatherDisplay:10.37 W/m2 CLR
07:20 14.3 °C 12.6 °C 1023.2 hPa Calm     89% 0 mm WeatherDisplay:10.37 W/m2 CLR
07:25 14.3 °C 12.5 °C 1023.2 hPa Calm     89% 0 mm WeatherDisplay:10.37 W/m2 CLR
07:30 14.3 °C 12.6 °C 1023.6 hPa Calm     89% 0 mm WeatherDisplay:10.37 W/m2 CLR
07:35 14.3 °C 12.6 °C 1023.6 hPa Calm     89% 0 mm WeatherDisplay:10.37 W/m2 CLR
07:40 14.3 °C 12.6 °C 1023.6 hPa Calm     89% 0 mm WeatherDisplay:10.37 W/m2 CLR
07:45 14.4 °C 12.6 °C 1023.2 hPa Calm     89% 0 mm WeatherDisplay:10.37 W/m2 CLR
07:50 14.6 °C 12.8 °C 1023.6 hPa Calm     89% 0 mm WeatherDisplay:10.37 W/m2 CLR
07:55 14.6 °C 12.7 °C 1023.6 hPa Calm     88% 0 mm WeatherDisplay:10.37 W/m2 CLR
08:00 14.8 °C 12.8 °C 1023.6 hPa Calm     88% 0 mm WeatherDisplay:10.37 W/m2 CLR
08:10 15.2 °C 12.8 °C 1023.6 hPa Calm     86% 0 mm WeatherDisplay:10.37 W/m2 CLR
08:15 15.3 °C 13 °C 1023.6 hPa Calm     86% 0 mm WeatherDisplay:10.37 W/m2 CLR
08:20 15.6 °C 13.2 °C 1023.9 hPa Calm     86% 0 mm WeatherDisplay:10.37 W/m2 FEW
08:25 15.8 °C 13.1 °C 1023.9 hPa Calm     84% 0 mm WeatherDisplay:10.37 W/m2 FEW
08:30 16.1 °C 13.4 °C 1023.6 hPa Calm     84% 0 mm WeatherDisplay:10.37 W/m2 FEW
08:35 16.4 °C 13.3 °C 1023.6 hPa Calm     82% 0 mm WeatherDisplay:10.37 W/m2 FEW
08:40 16.5 °C 13.4 °C 1023.6 hPa Calm     82% 0 mm WeatherDisplay:10.37 W/m2 FEW
08:45 16.7 °C 13 °C 1023.6 hPa Calm   1.6 km/h 79% 0 mm WeatherDisplay:10.37 W/m2 FEW
08:50 16.9 °C 13.2 °C 1023.6 hPa Calm     79% 0 mm WeatherDisplay:10.37 W/m2 FEW
08:55 17.1 °C 13.1 °C 1023.6 hPa Calm   1.6 km/h 77% 0 mm WeatherDisplay:10.37 W/m2 FEW
09:00 17.3 °C 13.3 °C 1023.6 hPa Calm   3.2 km/h 77% 0 mm WeatherDisplay:10.37 W/m2 FEW
09:05 17.5 °C 13.2 °C 1023.6 hPa Calm   3.2 km/h 76% 0 mm WeatherDisplay:10.37 W/m2 FEW
09:10 17.7 °C 13.2 °C 1023.9 hPa Calm   1.6 km/h 75% 0 mm WeatherDisplay:10.37 W/m2 FEW
09:15 17.8 °C 12.9 °C 1023.6 hPa West 1.6 km/h 3.2 km/h 73% 0 mm WeatherDisplay:10.37 W/m2 FEW
09:20 18 °C 13.3 °C 1023.9 hPa Calm   1.6 km/h 74% 0 mm WeatherDisplay:10.37 W/m2 CLR
09:25 18.1 °C 13.2 °C 1023.9 hPa WNW 1.6 km/h 4.8 km/h 73% 0 mm WeatherDisplay:10.37 W/m2 CLR
09:30 18.3 °C 13.1 °C 1023.9 hPa WNW 1.6 km/h 3.2 km/h 72% 0 mm WeatherDisplay:10.37 W/m2 CLR
09:35 18.4 °C 13.3 °C 1023.9 hPa Calm   3.2 km/h 72% 0 mm WeatherDisplay:10.37 W/m2 CLR
09:40 18.6 °C 13.2 °C 1023.9 hPa West 1.6 km/h 3.2 km/h 71% 0 mm WeatherDisplay:10.37 W/m2 CLR
09:45 18.7 °C 13.1 °C 1023.9 hPa Calm   3.2 km/h 70% 0 mm WeatherDisplay:10.37 W/m2 CLR
09:50 18.9 °C 13.3 °C 1023.9 hPa Calm   1.6 km/h 70% 0 mm WeatherDisplay:10.37 W/m2 CLR
09:55 19 °C 12.9 °C 1023.9 hPa West 1.6 km/h 1.6 km/h 68% 0 mm WeatherDisplay:10.37 W/m2 CLR
10:00 19.2 °C 13.1 °C 1023.9 hPa Calm   1.6 km/h 68% 0 mm WeatherDisplay:10.37 W/m2 CLR
10:05 19.3 °C 13.3 °C 1023.9 hPa Calm   3.2 km/h 68% 0 mm WeatherDisplay:10.37 W/m2 CLR
10:10 19.4 °C 12.9 °C 1023.9 hPa Calm   3.2 km/h 66% 0 mm WeatherDisplay:10.37 W/m2 CLR
10:15 19.7 °C 13.1 °C 1023.9 hPa Calm   3.2 km/h 66% 0 mm WeatherDisplay:10.37 W/m2 CLR
10:20 19.8 °C 13.1 °C 1024.3 hPa West 1.6 km/h 4.8 km/h 65% 0 mm WeatherDisplay:10.37 W/m2 CLR
10:25 20.1 °C 12.8 °C 1024.3 hPa WNW 1.6 km/h 8 km/h 63% 0.51 mm WeatherDisplay:10.37 W/m2 RA
10:30 20.3 °C 13.1 °C 1024.3 hPa Calm   1.6 km/h 63% 0 mm WeatherDisplay:10.37 W/m2 CLR
10:35 20.6 °C 12.8 °C 1024.3 hPa West 1.6 km/h 4.8 km/h 61% 0 mm WeatherDisplay:10.37 W/m2 CLR
10:40 20.7 °C 12.6 °C 1024.3 hPa Calm   8 km/h 60% 0 mm WeatherDisplay:10.37 W/m2 CLR
10:45 20.8 °C 12.8 °C 1024.3 hPa Calm   3.2 km/h 60% 0 mm WeatherDisplay:10.37 W/m2 CLR
10:50 21.1 °C 12.8 °C 1024.3 hPa Calm   8 km/h 59% 0 mm WeatherDisplay:10.37 W/m2 CLR
10:55 21.3 °C 12.9 °C 1024.3 hPa WNW 1.6 km/h 4.8 km/h 59% 0 mm WeatherDisplay:10.37 W/m2 CLR
11:00 21.4 °C 13.6 °C 1024.3 hPa Calm     61% 0 mm WeatherDisplay:10.37 W/m2 CLR
11:05 21.6 °C 13 °C 1024.3 hPa Calm   3.2 km/h 58% 0 mm WeatherDisplay:10.37 W/m2 CLR
11:10 21.7 °C 12.5 °C 1024.3 hPa West 1.6 km/h 9.7 km/h 56% 0 mm WeatherDisplay:10.37 W/m2 CLR
11:15 21.8 °C 13.4 °C 1024.3 hPa Calm   3.2 km/h 59% 0 mm WeatherDisplay:10.37 W/m2 CLR
11:20 22.1 °C 12.4 °C 1024.3 hPa West 1.6 km/h 8 km/h 54% 0 mm WeatherDisplay:10.37 W/m2 CLR
11:25 22.1 °C 12.3 °C 1024.3 hPa West 1.6 km/h 4.8 km/h 54% 0 mm WeatherDisplay:10.37 W/m2 CLR
11:30 22.2 °C 12.4 °C 1024.3 hPa West 1.6 km/h 4.8 km/h 54% 0 mm WeatherDisplay:10.37 W/m2 CLR
11:35 22.2 °C 12.4 °C 1024.3 hPa Calm   8 km/h 54% 0 mm WeatherDisplay:10.37 W/m2 CLR
11:40 22.4 °C 12.3 °C 1024.3 hPa West 1.6 km/h 3.2 km/h 53% 0 mm WeatherDisplay:10.37 W/m2 CLR
11:45 22.6 °C 13.1 °C 1024.3 hPa West 1.6 km/h 3.2 km/h 55% 0 mm WeatherDisplay:10.37 W/m2 CLR
11:50 22.9 °C 12.2 °C 1024.3 hPa WNW 1.6 km/h 4.8 km/h 51% 0 mm WeatherDisplay:10.37 W/m2 CLR
11:55 23.1 °C 12.7 °C 1024.3 hPa WSW 1.6 km/h 4.8 km/h 52% 0 mm WeatherDisplay:10.37 W/m2 CLR
12:00 23.1 °C 12.1 °C 1024.3 hPa SW 1.6 km/h 8 km/h 50% 0 mm WeatherDisplay:10.37 W/m2 CLR
12:10 23.4 °C 12.4 °C 1024.3 hPa West 1.6 km/h 4.8 km/h 50% 0 mm WeatherDisplay:10.37 W/m2 CLR
12:15 23.6 °C 12.6 °C 1023.9 hPa West 1.6 km/h 8 km/h 50% 0 mm WeatherDisplay:10.37 W/m2 CLR
12:20 23.7 °C 12.9 °C 1023.9 hPa West 1.6 km/h 4.8 km/h 51% 0 mm WeatherDisplay:10.37 W/m2 FEW
12:25 23.8 °C 12.2 °C 1023.9 hPa WNW 1.6 km/h 4.8 km/h 48% 0 mm WeatherDisplay:10.37 W/m2 FEW
12:30 23.6 °C 12.6 °C 1023.9 hPa West 1.6 km/h 3.2 km/h 50% 0 mm WeatherDisplay:10.37 W/m2 FEW
12:40 24 °C 12.9 °C 1023.9 hPa Calm   3.2 km/h 50% 0 mm WeatherDisplay:10.37 W/m2 FEW
12:45 24.4 °C 13 °C 1023.9 hPa West 1.6 km/h 4.8 km/h 49% 0 mm WeatherDisplay:10.37 W/m2 FEW
12:50 24.4 °C 13.1 °C 1023.9 hPa West 1.6 km/h 4.8 km/h 49% 0 mm WeatherDisplay:10.37 W/m2 FEW
12:55 24.1 °C 12.7 °C 1023.9 hPa Calm   4.8 km/h 49% 0 mm WeatherDisplay:10.37 W/m2 FEW
13:00 24.1 °C 12.7 °C 1023.6 hPa WNW 1.6 km/h 3.2 km/h 49% 0 mm WeatherDisplay:10.37 W/m2 FEW
13:05 24.1 °C 12.7 °C 1023.6 hPa WNW 1.6 km/h 8 km/h 49% 0 mm WeatherDisplay:10.37 W/m2 FEW
13:10 24.1 °C 12.9 °C 1023.6 hPa Calm   3.2 km/h 50% 0 mm WeatherDisplay:10.37 W/m2 FEW
13:15 24.2 °C 12.8 °C 1023.6 hPa West 1.6 km/h 8 km/h 49% 0 mm WeatherDisplay:10.37 W/m2 FEW
13:20 24.4 °C 12.9 °C 1023.6 hPa West 1.6 km/h 4.8 km/h 49% 0 mm WeatherDisplay:10.37 W/m2 FEW
13:25 24.5 °C 12.4 °C 1023.6 hPa West 1.6 km/h 8 km/h 47% 0 mm WeatherDisplay:10.37 W/m2 FEW
13:30 24.7 °C 12.9 °C 1023.2 hPa West 1.6 km/h 4.8 km/h 48% 0 mm WeatherDisplay:10.37 W/m2 FEW
13:35 24.9 °C 13.1 °C 1023.2 hPa Calm   3.2 km/h 48% 0 mm WeatherDisplay:10.37 W/m2 FEW
13:40 25.2 °C 13.1 °C 1023.2 hPa Calm   3.2 km/h 47% 0 mm WeatherDisplay:10.37 W/m2 FEW
13:45 25.4 °C 12.9 °C 1023.2 hPa NW 1.6 km/h 3.2 km/h 46% 0 mm WeatherDisplay:10.37 W/m2 FEW
13:50 24.9 °C 12.8 °C 1023.2 hPa Calm   8 km/h 47% 0 mm WeatherDisplay:10.37 W/m2 FEW
13:55 25.2 °C 13.1 °C 1023.2 hPa Calm   4.8 km/h 47% 0 mm WeatherDisplay:10.37 W/m2 FEW
14:00 25.3 °C 13.6 °C 1023.2 hPa Calm   3.2 km/h 48% 0 mm WeatherDisplay:10.37 W/m2 FEW
14:10 24.9 °C 12.2 °C 1023.2 hPa West 1.6 km/h 3.2 km/h 45% 0 mm WeatherDisplay:10.37 W/m2 FEW
14:15 24.8 °C 12.7 °C 1022.9 hPa Calm   3.2 km/h 47% 0 mm WeatherDisplay:10.37 W/m2 FEW
14:20 24.9 °C 12.5 °C 1022.9 hPa WNW 1.6 km/h 8 km/h 46% 0 mm WeatherDisplay:10.37 W/m2 SCT
14:25 25 °C 12.9 °C 1022.9 hPa West 1.6 km/h 4.8 km/h 47% 0 mm WeatherDisplay:10.37 W/m2 SCT
14:30 24.9 °C 12.5 °C 1022.9 hPa WNW 1.6 km/h 8 km/h 46% 0 mm WeatherDisplay:10.37 W/m2 SCT
14:40 24.2 °C 12.6 °C 1022.6 hPa Calm   3.2 km/h 48% 0 mm WeatherDisplay:10.37 W/m2 SCT
14:45 24 °C 13.2 °C 1022.6 hPa WNW 1.6 km/h 3.2 km/h 51% 0 mm WeatherDisplay:10.37 W/m2 SCT
14:50 23.9 °C 12.8 °C 1022.6 hPa Calm   4.8 km/h 50% 0 mm WeatherDisplay:10.37 W/m2 SCT
14:55 23.7 °C 12.3 °C 1022.6 hPa NNW 1.6 km/h 4.8 km/h 49% 0 mm WeatherDisplay:10.37 W/m2 SCT
15:00 23.8 °C 12.7 °C 1022.6 hPa Calm   8 km/h 50% 0 mm WeatherDisplay:10.37 W/m2 SCT
15:05 23.9 °C 12.6 °C 1022.2 hPa Calm   8 km/h 49% 0 mm WeatherDisplay:10.37 W/m2 SCT
15:10 24.1 °C 13.3 °C 1022.2 hPa Calm   3.2 km/h 51% 0 mm WeatherDisplay:10.37 W/m2 SCT
15:15 24.1 °C 12.1 °C 1022.2 hPa WNW 1.6 km/h 3.2 km/h 47% 0 mm WeatherDisplay:10.37 W/m2 SCT
15:20 24 °C 12.6 °C 1022.2 hPa Calm   4.8 km/h 49% 0 mm WeatherDisplay:10.37 W/m2 FEW
15:25 24 °C 12.3 °C 1021.9 hPa Calm   4.8 km/h 48% 0 mm WeatherDisplay:10.37 W/m2 FEW
15:30 24.1 °C 12.1 °C 1021.9 hPa West 1.6 km/h 4.8 km/h 47% 0 mm WeatherDisplay:10.37 W/m2 FEW
15:40 24.1 °C 12.7 °C 1021.9 hPa NNW 1.6 km/h 8 km/h 49% 0 mm WeatherDisplay:10.37 W/m2 FEW
15:45 24.1 °C 12.1 °C 1021.9 hPa Calm   4.8 km/h 47% 0 mm WeatherDisplay:10.37 W/m2 FEW
15:50 24.1 °C 12.7 °C 1021.9 hPa Calm   3.2 km/h 49% 0 mm WeatherDisplay:10.37 W/m2 FEW
15:55 24.1 °C 12.7 °C 1021.9 hPa Calm   3.2 km/h 49% 0 mm WeatherDisplay:10.37 W/m2 FEW
16:00 23.9 °C 13.2 °C 1021.9 hPa Calm   3.2 km/h 51% 0 mm WeatherDisplay:10.37 W/m2 FEW
16:05 23.9 °C 13.2 °C 1021.9 hPa Calm   4.8 km/h 51% 0 mm WeatherDisplay:10.37 W/m2 FEW
16:10 23.9 °C 12.9 °C 1021.9 hPa Calm   3.2 km/h 50% 0 mm WeatherDisplay:10.37 W/m2 FEW
16:15 24 °C 12.7 °C 1021.6 hPa NNE 3.2 km/h 8 km/h 49% 0 mm WeatherDisplay:10.37 W/m2 FEW
16:20 24 °C 12.3 °C 1021.6 hPa East 1.6 km/h 3.2 km/h 48% 0 mm WeatherDisplay:10.37 W/m2 FEW
16:25 23.9 °C 12.6 °C 1021.6 hPa ESE 1.6 km/h 11.3 km/h 49% 0 mm WeatherDisplay:10.37 W/m2 FEW
16:30 23.9 °C 12.9 °C 1021.6 hPa Calm   3.2 km/h 50% 0 mm WeatherDisplay:10.37 W/m2 FEW
16:40 23.9 °C 12.2 °C 1021.6 hPa NW 1.6 km/h 8 km/h 48% 0 mm WeatherDisplay:10.37 W/m2 FEW
16:45 23.8 °C 12.2 °C 1021.6 hPa Calm   3.2 km/h 48% 0 mm WeatherDisplay:10.37 W/m2 FEW
16:50 23.8 °C 12.5 °C 1021.6 hPa Calm   3.2 km/h 49% 0 mm WeatherDisplay:10.37 W/m2 FEW
17:00 23.8 °C 12.7 °C 1021.6 hPa Calm   8 km/h 50% 0 mm WeatherDisplay:10.37 W/m2 FEW
17:10 23.7 °C 12.6 °C 1021.6 hPa Calm   1.6 km/h 50% 0 mm WeatherDisplay:10.37 W/m2 FEW
17:15 23.7 °C 12.3 °C 1021.2 hPa Calm   3.2 km/h 49% 0 mm WeatherDisplay:10.37 W/m2 FEW
17:20 23.7 °C 12.3 °C 1021.6 hPa Calm   3.2 km/h 49% 0 mm WeatherDisplay:10.37 W/m2 FEW
17:25 23.6 °C 12.6 °C 1021.6 hPa West 1.6 km/h 8 km/h 50% 0 mm WeatherDisplay:10.37 W/m2 FEW
17:30 23.6 °C 12.2 °C 1021.6 hPa Calm   4.8 km/h 49% 0 mm WeatherDisplay:10.37 W/m2 FEW
17:40 23.5 °C 12.2 °C 1021.6 hPa Calm   3.2 km/h 49% 0 mm WeatherDisplay:10.37 W/m2 FEW
17:45 23.4 °C 12.4 °C 1021.2 hPa Calm   1.6 km/h 50% 0 mm WeatherDisplay:10.37 W/m2 FEW
17:50 23.3 °C 12.6 °C 1021.6 hPa Calm   3.2 km/h 51% 0 mm WeatherDisplay:10.37 W/m2 FEW
17:55 23.3 °C 12.9 °C 1021.6 hPa Calm   1.6 km/h 52% 0 mm WeatherDisplay:10.37 W/m2 FEW
18:00 23.2 °C 12.8 °C 1021.6 hPa Calm   3.2 km/h 52% 0 mm WeatherDisplay:10.37 W/m2 FEW
18:05 23.1 °C 12.9 °C 1021.6 hPa Calm   1.6 km/h 53% 0 mm WeatherDisplay:10.37 W/m2 FEW
18:10 22.9 °C 12.6 °C 1021.6 hPa Calm   1.6 km/h 52% 0 mm WeatherDisplay:10.37 W/m2 FEW
18:15 23.1 °C 12.7 °C 1021.6 hPa Calm   3.2 km/h 52% 0 mm WeatherDisplay:10.37 W/m2 FEW
18:20 23.1 °C 12.9 °C 1021.6 hPa Calm   1.6 km/h 53% 0 mm WeatherDisplay:10.37 W/m2 CLR
18:25 22.9 °C 13.1 °C 1021.6 hPa Calm   1.6 km/h 54% 0 mm WeatherDisplay:10.37 W/m2 CLR
18:30 22.8 °C 13.3 °C 1021.2 hPa Calm     55% 0 mm WeatherDisplay:10.37 W/m2 CLR
18:40 22.6 °C 13.1 °C 1021.6 hPa Calm   3.2 km/h 55% 0 mm WeatherDisplay:10.37 W/m2 CLR
18:45 22.4 °C 12.7 °C 1021.6 hPa Calm   1.6 km/h 54% 0 mm WeatherDisplay:10.37 W/m2 CLR
18:50 22.4 °C 12.4 °C 1021.6 hPa Calm   1.6 km/h 53% 0 mm WeatherDisplay:10.37 W/m2 CLR
18:55 22.4 °C 12.7 °C 1021.6 hPa Calm   1.6 km/h 54% 0 mm WeatherDisplay:10.37 W/m2 CLR
19:00 22.3 °C 12.5 °C 1021.2 hPa Calm     54% 0 mm WeatherDisplay:10.37 W/m2 CLR
19:05 22.1 °C 12.7 °C 1021.2 hPa Calm     55% 0 mm WeatherDisplay:10.37 W/m2 CLR
19:10 21.9 °C 12.8 °C 1021.2 hPa Calm     56% 0 mm WeatherDisplay:10.37 W/m2 CLR
19:20 21.8 °C 12.9 °C 1021.2 hPa Calm     57% 0 mm WeatherDisplay:10.37 W/m2 CLR
19:30 21.5 °C 12.6 °C 1021.2 hPa Calm     57% 0 mm WeatherDisplay:10.37 W/m2 CLR
19:40 21.2 °C 12.9 °C 1021.2 hPa Calm     59% 0 mm WeatherDisplay:10.37 W/m2 CLR
19:45 21.1 °C 12.7 °C 1021.2 hPa Calm     59% 0 mm WeatherDisplay:10.37 W/m2 CLR
19:50 20.9 °C 12.6 °C 1021.2 hPa Calm     59% 0 mm WeatherDisplay:10.37 W/m2 CLR
19:55 20.8 °C 12.7 °C 1021.2 hPa Calm     60% 0 mm WeatherDisplay:10.37 W/m2 CLR
20:05 20.4 °C 12.9 °C 1021.2 hPa Calm     62% 0 mm WeatherDisplay:10.37 W/m2 CLR
20:10 20.3 °C 12.8 °C 1021.6 hPa Calm     62% 0 mm WeatherDisplay:10.37 W/m2 CLR
20:15 20.2 °C 12.7 °C 1021.6 hPa Calm     62% 0 mm WeatherDisplay:10.37 W/m2 CLR
20:20 20.1 °C 12.8 °C 1021.2 hPa Calm     63% 0 mm WeatherDisplay:10.37 W/m2 CLR
20:30 19.7 °C 12.7 °C 1021.2 hPa Calm     64% 0 mm WeatherDisplay:10.37 W/m2 CLR
20:35 19.6 °C 12.8 °C 1021.2 hPa Calm     65% 0 mm WeatherDisplay:10.37 W/m2 CLR
20:40 19.4 °C 12.9 °C 1021.2 hPa Calm     66% 0 mm WeatherDisplay:10.37 W/m2 CLR
20:45 19.3 °C 12.8 °C 1021.2 hPa Calm     66% 0 mm WeatherDisplay:10.37 W/m2 CLR
20:50 19.2 °C 12.9 °C 1021.2 hPa Calm     67% 0 mm WeatherDisplay:10.37 W/m2 CLR
20:55 19.1 °C 12.8 °C 1021.2 hPa Calm     67% 0 mm WeatherDisplay:10.37 W/m2 CLR
21:00 19 °C 12.7 °C 1021.6 hPa Calm     67% 0 mm WeatherDisplay:10.37 W/m2 CLR
21:10 18.9 °C 12.8 °C 1021.6 hPa Calm     68% 0 mm WeatherDisplay:10.37 W/m2 CLR
21:15 18.8 °C 12.7 °C 1021.6 hPa Calm     68% 0 mm WeatherDisplay:10.37 W/m2 CLR
21:20 18.7 °C 12.7 °C 1021.6 hPa Calm     68% 0 mm WeatherDisplay:10.37 W/m2 CLR
21:30 18.6 °C 12.6 °C 1021.6 hPa Calm     68% 0 mm WeatherDisplay:10.37 W/m2 CLR
21:35 18.5 °C 12.7 °C 1021.6 hPa Calm     69% 0 mm WeatherDisplay:10.37 W/m2 CLR
21:40 18.4 °C 12.7 °C 1021.9 hPa Calm     69% 0 mm WeatherDisplay:10.37 W/m2 CLR
21:45 18.3 °C 12.6 °C 1021.9 hPa Calm     69% 0 mm WeatherDisplay:10.37 W/m2 CLR
21:50 18.3 °C 12.9 °C 1021.9 hPa Calm     71% 0 mm WeatherDisplay:10.37 W/m2 CLR
21:55 18.2 °C 12.8 °C 1021.9 hPa Calm     71% 0 mm WeatherDisplay:10.37 W/m2 CLR
22:00 18.1 °C 12.5 °C 1021.9 hPa Calm     70% 0 mm WeatherDisplay:10.37 W/m2 CLR
22:05 18.1 °C 12.9 °C 1021.9 hPa Calm     72% 0 mm WeatherDisplay:10.37 W/m2 CLR
22:10 17.9 °C 12.8 °C 1021.9 hPa Calm     72% 0 mm WeatherDisplay:10.37 W/m2 CLR
22:15 17.9 °C 12.8 °C 1022.2 hPa Calm     72% 0 mm WeatherDisplay:10.37 W/m2 CLR
22:20 17.8 °C 12.9 °C 1021.9 hPa Calm     73% 0 mm WeatherDisplay:10.37 W/m2 CLR
22:25 17.8 °C 12.7 °C 1022.2 hPa Calm     72% 0 mm WeatherDisplay:10.37 W/m2 CLR
22:30 17.7 °C 12.6 °C 1022.2 hPa Calm     72% 0 mm WeatherDisplay:10.37 W/m2 CLR
22:40 17.7 °C 12.7 °C 1022.2 hPa Calm     73% 0 mm WeatherDisplay:10.37 W/m2 CLR
22:45 17.6 °C 12.9 °C 1022.2 hPa Calm     74% 0 mm WeatherDisplay:10.37 W/m2 CLR
22:50 17.5 °C 13 °C 1022.2 hPa Calm     75% 0 mm WeatherDisplay:10.37 W/m2 CLR
22:55 17.4 °C 12.9 °C 1022.2 hPa Calm     75% 0 mm WeatherDisplay:10.37 W/m2 CLR
23:00 17.3 °C 13 °C 1022.2 hPa Calm     76% 0 mm WeatherDisplay:10.37 W/m2 CLR
23:05 17.2 °C 13.1 °C 1022.2 hPa Calm     77% 0 mm WeatherDisplay:10.37 W/m2 CLR
23:10 17.1 °C 12.8 °C 1022.2 hPa Calm     76% 0 mm WeatherDisplay:10.37 W/m2 CLR
23:15 17.1 °C 12.8 °C 1022.2 hPa Calm     76% 0 mm WeatherDisplay:10.37 W/m2 CLR
23:20 17.1 °C 12.8 °C 1022.2 hPa Calm     76% 0 mm WeatherDisplay:10.37 W/m2 CLR
23:25 17.1 °C 12.8 °C 1022.2 hPa Calm     76% 0 mm WeatherDisplay:10.37 W/m2 CLR
23:30 17 °C 12.7 °C 1022.6 hPa Calm     76% 0 mm WeatherDisplay:10.37 W/m2 CLR
23:35 17 °C 12.7 °C 1022.2 hPa Calm     76% 0 mm WeatherDisplay:10.37 W/m2 CLR
23:40 16.9 °C 12.7 °C 1022.6 hPa Calm     76% 0 mm WeatherDisplay:10.37 W/m2 CLR
23:45 16.9 °C 12.7 °C 1022.6 hPa Calm     76% 0 mm WeatherDisplay:10.37 W/m2 CLR
23:50 16.9 °C 12.5 °C 1022.6 hPa Calm     75% 0 mm WeatherDisplay:10.37 W/m2 CLR
23:55 17 °C 12.5 °C 1022.6 hPa Calm     75% 0 mm WeatherDisplay:10.37 W/m2 CLR
Piedmont Bend
Compliments of Weather Underground - 4 mb